Theta_e
311 315 318 317 315 315 315 314 318 319 318 319 320 320 320 322 329 333 341 342 339 341 343 340 335 336 340 337 337 336 334 334 333 333 330 332 332 331 329 332 330 319 319 318 333 336 336 335 330
311 315 317 315 314 313 314 314 315 316 318 316 317 324 330 325 337 341 341 339 339 342 344 343 335 332 335 335 333 333 332 331 331 331 331 329 330 329 331 336 336 329 331 322 315 327 328 329 327
311 314 316 315 312 313 313 313 314 317 316 316 321 319 326 332 339 341 339 337 338 342 342 344 337 335 328 330 328 327 328 328 329 330 326 326 331 329 328 338 335 336 333 325 315 325 326 316 313
315 315 314 317 315 314 313 316 316 317 316 314 315 319 317 331 337 338 335 338 339 341 340 340 341 340 335 332 326 327 325 323 324 325 325 327 334 337 336 334 334 335 332 323 312 319 316 316 329
314 314 315 315 315 314 315 314 315 317 317 315 314 319 317 322 334 337 329 329 340 340 340 337 337 339 339 339 329 325 324 323 325 328 331 331 335 336 336 336 333 333 329 320 320 324 325 326 327
315 314 314 315 315 313 313 313 315 316 316 314 314 315 316 314 324 327 329 320 326 334 336 339 336 336 335 339 338 330 324 326 328 331 333 333 332 332 334 334 333 331 326 317 322 317 327 328 327
316 316 315 315 315 314 314 313 313 315 315 315 314 316 316 313 315 321 323 321 323 329 332 336 338 337 335 332 336 339 327 326 331 334 335 333 331 332 332 333 330 329 322 313 311 315 330 328 328
316 317 316 316 316 316 314 313 314 313 315 313 314 316 317 316 314 317 321 321 322 322 325 334 338 338 338 336 333 337 335 329 330 334 335 333 332 332 332 330 327 325 317 314 313 314 327 327 328
315 317 316 316 315 315 313 315 314 314 314 314 314 315 315 313 314 321 322 321 319 318 318 323 330 336 338 338 337 333 333 332 331 333 335 334 333 331 325 325 318 322 317 309 312 316 321 326 326
316 316 314 314 314 314 314 315 316 316 316 315 315 315 314 314 314 317 320 320 319 318 318 318 319 323 333 335 335 335 334 332 333 333 335 335 335 333 328 320 315 324 323 312 322 325 326 323 323
317 315 314 313 313 312 314 315 315 316 317 316 317 316 316 315 315 316 318 314 316 317 316 315 315 316 320 332 334 335 334 334 335 336 335 336 334 331 327 324 319 325 322 321 326 326 325 325 324
316 315 315 314 315 316 316 315 315 315 316 315 314 313 314 313 314 314 316 318 316 317 316 314 314 314 314 315 325 333 334 334 334 336 335 335 335 333 329 326 324 324 324 324 327 325 324 324 323
315 314 314 314 313 313 314 315 315 314 314 314 313 313 313 313 314 314 314 314 315 314 314 314 312 312 313 314 319 323 326 333 334 334 335 335 334 333 331 328 325 324 324 325 325 324 324 324 323
312 312 313 312 312 312 312 312 311 312 312 312 312 313 313 314 314 314 315 313 314 314 314 314 313 313 314 314 314 314 316 325 332 333 334 334 333 333 333 330 325 324 325 325 325 323 322 323 323
312 314 312 312 312 312 311 312 312 312 312 312 312 312 314 315 314 314 313 314 314 313 313 313 314 313 314 315 315 315 314 318 324 331 332 333 334 335 334 333 327 325 325 325 325 324 322 322 322
312 312 312 312 312 312 312 312 312 313 313 314 313 313 314 314 314 314 313 313 313 313 313 313 313 314 313 315 315 315 315 314 317 326 332 332 332 333 333 333 332 326 325 324 324 323 322 323 322
312 312 312 311 311 312 314 312 313 314 314 314 313 314 313 313 312 311 311 311 312 313 313 313 313 314 314 314 315 315 315 315 314 315 322 331 331 331 331 332 333 330 325 323 323 322 322 322 322
316 311 310 311 311 312 314 314 314 313 312 313 313 312 312 311 312 312 313 312 313 314 313 313 313 313 314 315 314 315 315 315 315 315 318 329 331 331 331 330 332 330 324 322 321 322 321 321 322
311 312 312 311 311 312 312 313 313 312 312 312 311 310 310 309 310 312 315 316 315 314 314 314 313 313 314 315 315 315 315 315 317 318 316 319 328 329 330 329 328 330 326 322 320 320 321 321 321
312 313 312 311 311 311 311 312 312 312 312 308 308 308 309 308 309 310 311 315 316 316 315 314 314 313 313 314 315 315 315 315 317 316 315 317 324 322 325 328 326 329 328 323 321 321 321 320 320
312 311 312 310 309 310 311 312 311 308 306 305 304 304 304 305 306 306 308 312 313 316 317 316 315 314 314 315 315 314 315 315 316 316 316 323 322 320 321 325 326 325 326 325 324 320 320 320 320
310 308 308 309 310 310 309 310 308 310 307 305 303 302 302 302 303 303 304 308 311 312 314 316 318 317 316 315 315 315 315 316 316 317 317 320 322 321 321 327 326 324 326 324 324 323 319 319 319
308 307 308 308 308 308 308 311 309 310 308 304 302 300 300 300 300 300 299 304 307 310 312 314 315 317 318 319 317 317 317 318 317 319 321 324 324 323 323 326 322 323 324 324 324 323 320 318 317
305 306 306 308 310 311 309 309 309 310 310 302 299 297 297 297 297 296 296 300 305 308 310 312 314 315 316 316 316 317 318 318 318 318 320 320 321 321 321 321 321 322 322 322 320 321 322 319 317
301 300 306 307 310 309 308 309 309 305 303 300 297 295 295 295 295 294 293 293 295 301 306 308 310 313 315 316 316 316 316 316 315 316 316 318 319 321 321 321 321 321 320 320 318 320 321 320 317
296 299 303 305 306 307 308 309 305 299 297 296 296 296 295 294 293 293 292 292 292 293 296 301 306 309 311 313 315 315 316 315 315 314 314 315 316 317 318 317 318 318 318 320 320 318 318 320 317
296 297 295 295 297 301 303 304 302 300 298 298 298 297 297 296 296 294 293 292 292 292 292 294 295 298 306 309 311 313 314 315 315 314 315 314 315 316 317 316 316 316 316 316 317 318 317 318 318
295 294 295 297 298 299 302 306 303 301 300 298 297 296 295 294 295 294 294 293 292 291 291 292 292 292 295 302 305 309 311 313 314 314 314 315 314 315 316 317 316 316 316 316 316 317 317 317 317
293 294 294 296 298 299 299 300 297 298 297 296 295 293 293 293 292 293 293 292 292 291 291 290 291 292 293 293 295 300 306 310 313 314 315 315 315 315 315 316 317 316 316 316 315 315 315 316 316
294 293 292 294 295 294 297 298 294 293 293 292 291 291 293 293 292 291 291 292 292 292 291 291 290 290 292 292 292 293 297 303 308 311 313 314 315 315 315 316 314 315 315 315 314 315 315 316 316
Wind_Speed
6 8 11 4 4 3 5 5 2 6 4 4 2 7 8 7 4 2 4 6 6 10 18 20 21 20 17 17 17 17 16 16 16 14 14 13 12 11 10 12 14 16 13 10 9 10 11 9 7
7 8 5 2 4 6 4 4 10 9 3 2 5 8 7 9 5 0 5 7 7 10 16 18 20 20 19 15 17 17 16 15 15 14 14 13 13 12 12 16 15 15 6 5 9 11 11 10 7
8 9 3 2 3 6 3 6 6 5 6 4 4 5 3 2 4 4 6 7 10 10 13 16 20 19 20 18 17 16 16 17 16 15 14 13 13 14 16 17 14 12 7 5 8 14 10 9 9
4 2 1 5 9 8 5 4 6 6 7 5 4 5 4 7 3 6 8 6 10 11 11 17 19 19 19 17 17 18 17 17 17 16 15 15 16 16 16 17 15 12 9 7 9 13 11 15 14
8 2 4 5 8 5 9 7 8 8 6 9 6 5 4 7 9 10 10 9 10 12 11 15 19 18 18 18 16 17 18 18 18 16 17 16 16 16 15 11 13 12 10 8 10 13 19 17 15
3 2 5 8 8 5 7 13 13 13 12 7 5 7 6 9 12 11 12 12 12 13 13 12 18 19 20 18 18 18 19 19 19 19 17 17 17 17 16 14 13 12 10 10 14 16 20 20 15
4 4 6 9 10 7 6 8 17 15 17 15 4 7 6 10 13 16 16 16 16 16 15 15 14 18 19 21 19 20 20 21 20 20 19 18 18 16 16 15 15 13 11 11 14 21 20 18 16
3 3 4 6 6 6 3 7 4 16 16 8 8 7 10 9 12 16 19 19 18 18 18 16 15 15 16 19 22 22 21 22 21 22 20 18 17 17 18 19 16 14 13 13 15 23 23 19 15
5 5 9 7 6 3 3 7 7 5 14 11 11 11 6 5 8 16 18 19 20 20 19 20 19 17 17 16 19 24 23 23 23 23 23 20 17 16 17 15 15 14 12 14 19 22 22 21 18
7 5 6 3 5 5 4 10 8 7 15 16 17 18 20 17 14 18 23 24 25 23 22 20 20 21 20 20 19 23 24 26 26 26 27 22 17 15 13 13 13 14 13 21 21 18 19 17 18
5 8 3 5 7 8 9 10 11 12 16 18 17 21 21 21 23 23 26 29 30 28 25 23 21 20 20 22 21 22 24 26 27 27 28 29 22 17 15 13 14 15 19 22 20 21 18 19 19
7 13 15 8 3 5 10 11 16 22 25 20 17 18 14 17 18 22 26 27 33 34 33 30 28 28 26 25 23 21 23 26 28 29 32 32 26 19 17 16 16 16 18 18 19 18 22 21 19
13 13 12 12 12 14 17 24 24 24 21 28 30 26 25 25 25 23 22 24 30 37 38 38 32 33 32 32 28 26 26 26 27 29 32 33 29 25 19 18 17 17 18 20 22 23 23 23 22
4 10 16 16 19 18 19 29 26 21 22 27 28 31 28 29 31 27 22 27 29 28 27 25 28 27 29 33 32 32 31 30 27 28 31 33 32 28 25 20 19 19 19 19 24 26 25 24 17
10 12 15 17 15 12 10 25 17 29 23 27 29 26 19 17 19 25 24 21 22 24 25 23 23 29 32 31 33 31 30 32 31 30 29 30 33 34 28 24 22 20 19 21 23 26 23 26 19
7 10 8 6 4 4 8 29 17 7 6 10 15 21 19 12 13 14 18 19 22 26 28 27 25 26 31 32 33 32 29 30 32 32 31 29 31 34 35 29 25 22 21 23 24 28 29 22 24
7 13 15 11 5 5 13 21 9 7 16 20 20 14 15 17 12 14 21 23 24 23 24 24 25 28 27 32 33 31 28 27 28 31 32 32 31 30 32 35 29 28 27 24 30 31 30 28 23
10 15 17 15 4 11 15 24 23 28 23 24 23 21 19 14 7 9 12 17 20 19 19 20 22 25 29 29 31 31 29 26 26 25 27 30 32 31 30 29 35 33 33 28 31 34 32 33 22
15 18 22 21 17 19 21 24 23 24 24 23 20 17 17 11 2 4 4 9 11 13 13 17 20 23 30 31 31 30 28 26 26 25 24 25 27 30 31 27 31 39 39 33 31 35 35 34 28
16 19 22 21 16 14 18 22 20 21 14 7 6 2 2 3 4 4 2 3 6 7 6 11 17 21 27 30 30 28 27 25 26 27 26 24 24 25 29 30 31 35 37 37 37 35 37 38 37
17 16 22 23 21 19 18 24 22 3 5 5 7 7 8 8 9 10 8 6 4 4 5 6 10 18 22 25 26 25 25 26 29 28 25 26 25 25 26 28 29 31 36 36 39 40 39 38 40
24 19 21 22 18 18 6 16 17 10 6 5 8 10 11 12 12 13 13 10 6 6 5 6 7 9 15 18 20 22 21 20 23 26 25 26 27 27 25 25 25 28 32 32 38 43 41 41 41
24 21 20 21 21 21 21 11 16 11 9 6 8 12 13 15 16 17 17 15 15 8 9 8 8 7 3 6 11 13 15 16 18 19 24 26 27 27 25 26 25 27 29 30 32 42 44 43 44
15 14 17 18 16 14 21 18 15 11 10 9 12 15 16 17 19 20 20 20 19 13 9 9 9 9 8 5 4 5 8 12 15 17 17 20 24 25 25 25 23 27 29 32 30 34 45 44 43
15 17 7 10 8 11 5 9 7 8 13 14 13 16 17 18 20 22 25 29 28 24 18 14 11 9 6 7 7 7 8 11 12 17 19 20 22 24 30 29 30 33 33 36 35 36 41 46 47
21 14 10 9 8 9 7 7 5 13 16 20 20 19 20 22 21 23 23 27 28 29 26 22 18 11 6 2 3 9 10 10 13 16 19 23 22 22 21 25 29 34 35 36 37 39 39 49 51
10 11 14 12 18 14 10 6 8 12 12 13 14 15 17 18 18 20 23 24 25 29 28 25 22 20 13 9 6 1 7 12 12 15 16 22 22 23 23 21 22 23 26 33 39 44 42 48 50
6 13 8 6 8 14 14 5 7 10 10 9 10 14 17 17 18 19 20 22 23 28 26 26 24 22 19 15 11 7 3 5 13 17 18 19 22 25 26 25 24 26 26 30 39 47 48 47 52
15 5 7 5 5 7 12 5 9 11 11 11 13 15 16 18 19 18 19 19 22 25 28 28 24 24 22 19 16 13 9 6 5 8 16 16 18 26 28 29 30 33 33 30 32 37 49 50 53
8 10 14 5 4 6 5 5 7 10 12 17 20 20 18 17 17 18 18 19 22 24 27 26 27 27 25 22 21 17 14 12 9 7 9 16 22 22 22 26 30 34 38 37 34 38 42 52 52
Wind_Direction
133 131 134 126 209 243 237 223 260 205 213 197 175 217 235 273 250 335 137 163 152 169 176 179 187 194 194 193 191 186 183 184 189 184 177 176 173 173 182 174 162 156 150 162 158 173 169 171 169
143 135 134 185 241 233 229 210 219 225 184 248 232 230 243 235 243 234 145 187 166 160 173 179 186 194 202 200 201 194 191 191 191 188 185 184 186 188 187 171 166 167 165 175 185 202 211 213 216
150 151 203 224 230 238 254 205 226 233 217 233 226 222 250 234 211 175 198 194 184 173 173 183 186 189 197 203 203 203 200 195 196 195 191 188 193 189 181 177 186 191 215 226 209 194 210 169 157
142 167 85 242 231 237 238 202 186 204 205 215 224 236 236 216 179 185 186 173 175 178 177 195 187 195 196 199 200 197 198 198 196 194 191 185 185 183 179 197 204 209 229 239 203 196 165 138 141
164 194 237 249 255 264 247 249 194 208 197 190 193 224 238 225 211 198 190 175 172 174 174 188 191 201 203 203 201 201 200 196 196 192 186 187 186 190 193 212 215 215 232 232 182 178 153 148 151
192 267 240 250 241 243 247 229 229 236 220 192 217 231 238 219 209 210 200 193 187 188 183 182 191 200 208 209 209 202 201 201 201 196 192 191 198 207 211 223 231 216 225 226 189 168 162 159 168
259 233 263 270 272 268 241 211 218 224 227 226 236 233 239 233 213 213 215 209 198 195 195 195 194 200 207 213 214 209 203 204 206 203 199 199 206 208 214 224 238 224 229 220 188 169 166 170 184
237 271 259 239 261 266 196 190 232 223 232 215 199 238 244 236 230 216 214 214 208 210 208 204 204 204 208 211 213 212 209 207 209 208 207 204 205 214 226 234 225 221 230 198 170 169 168 177 184
179 239 255 260 229 286 188 219 215 231 228 214 217 224 212 214 217 213 215 215 218 216 214 212 212 211 210 211 217 215 217 213 211 212 212 213 199 211 222 211 214 205 200 176 159 159 175 184 188
220 245 251 288 286 291 261 248 258 237 226 234 237 236 238 238 236 233 226 228 225 217 214 212 214 220 220 219 217 218 215 215 214 210 208 203 196 197 198 209 207 190 179 163 159 171 181 177 189
203 247 270 270 268 270 272 253 244 247 252 248 256 254 252 248 243 236 235 238 237 229 218 219 222 223 225 224 222 221 218 218 216 208 206 208 207 202 198 200 193 187 166 171 170 183 188 186 192
249 249 255 274 289 293 270 279 258 249 256 270 273 266 261 245 237 235 236 235 235 234 236 234 240 238 229 229 226 221 224 222 218 212 211 214 214 212 194 191 189 187 185 185 184 181 187 189 195
244 265 264 264 277 274 269 258 261 262 265 260 263 258 254 253 251 244 238 238 239 243 244 248 250 237 231 228 228 226 223 224 223 217 217 216 217 220 205 196 191 189 189 190 192 192 191 192 197
315 257 270 277 271 265 266 265 265 263 267 262 262 252 253 253 248 245 241 243 244 245 246 245 237 226 224 225 226 228 227 229 224 224 222 220 220 224 223 208 196 193 195 191 193 198 195 196 188
277 284 275 258 261 257 263 272 248 271 276 268 262 262 251 255 239 234 240 242 244 247 247 247 239 228 222 223 226 226 227 227 228 226 224 227 228 221 226 227 209 196 196 194 196 200 196 197 186
267 270 274 112 182 236 201 273 290 289 317 301 280 255 265 262 245 230 232 246 255 254 251 245 236 227 221 219 223 224 225 227 228 227 228 224 231 229 223 225 228 205 197 196 195 199 200 193 195
217 273 276 297 203 263 215 276 305 252 292 292 295 274 244 282 270 252 244 251 255 251 246 239 232 225 221 218 220 224 227 229 229 227 227 227 227 231 232 226 228 222 213 201 200 202 205 200 195
288 275 278 270 252 273 266 267 273 273 282 283 285 281 273 271 274 255 240 237 242 247 237 233 229 223 215 214 218 221 224 227 228 227 227 225 226 228 231 233 226 222 218 213 204 205 206 209 194
279 274 274 278 279 268 273 273 279 280 277 276 289 279 273 263 279 249 261 238 230 234 229 226 225 219 212 210 212 216 221 224 222 224 226 220 226 230 232 229 236 228 218 216 211 207 207 204 195
259 269 272 281 274 265 271 274 276 285 288 294 292 335 98 130 75 59 132 174 193 197 202 214 214 212 207 208 207 212 216 221 226 226 226 218 223 227 232 237 234 233 237 211 221 210 203 209 205
256 257 272 278 293 278 276 274 265 171 137 102 76 76 68 60 59 48 56 91 98 107 138 162 191 194 198 200 202 208 213 221 224 227 226 222 224 230 234 232 231 234 229 230 235 219 211 205 207
282 286 284 276 278 274 266 280 280 175 153 104 82 65 56 52 49 49 46 62 78 80 110 137 139 186 198 202 204 210 215 222 226 225 227 223 228 233 233 233 235 230 232 235 232 229 218 214 217
279 290 281 278 272 274 263 254 263 165 181 112 76 67 59 56 51 47 44 55 62 91 94 103 134 120 138 197 211 216 223 228 232 230 229 229 232 233 231 232 227 232 234 239 234 228 219 215 215
294 299 295 266 256 254 252 246 257 209 185 125 92 73 63 60 56 53 51 59 63 74 95 95 118 152 141 178 227 233 231 232 235 240 239 236 234 234 234 235 234 236 232 230 230 239 229 222 219
336 326 296 263 236 254 322 281 281 81 119 115 96 77 67 61 56 51 46 50 53 57 61 65 76 98 131 197 208 219 253 253 250 244 245 244 244 237 231 227 223 224 229 235 236 235 232 227 222
302 281 275 293 287 305 302 318 74 82 89 98 89 80 69 60 55 50 43 44 46 53 53 55 57 61 74 164 181 221 232 243 253 254 251 246 246 249 247 237 233 234 233 228 229 237 238 231 229
325 291 325 275 263 263 268 109 110 118 78 67 68 62 52 46 43 40 40 37 36 41 44 48 45 47 54 56 58 215 244 243 240 254 260 248 248 250 245 238 237 233 234 229 233 236 236 231 232
303 315 301 246 273 264 252 124 38 81 86 64 48 38 40 34 34 34 32 29 29 34 30 42 34 33 40 42 34 20 2 266 255 253 254 252 245 247 247 242 244 240 242 235 228 232 237 237 235
306 314 305 286 309 281 271 92 20 34 43 43 33 30 32 30 26 26 24 25 24 24 25 27 23 23 28 29 22 17 4 338 294 275 243 252 253 243 245 245 248 251 249 243 241 237 236 235 237
89 47 14 357 354 302 276 83 34 45 41 42 32 19 7 12 16 16 14 12 13 12 10 10 12 19 17 13 6 4 0 352 325 303 274 253 245 249 247 252 252 256 256 250 250 241 239 237 237